Temp
55 55 55 55 56 56 56 56 56 56 56 56 56 56 55 54 53 48 46 47 46 42 47 49 52 49 47 49 48 45 43 42 41 38 40 43 42 45 40 46 40 39 35 35 38 34 32 51 46 46 57 58 58 56
54 54 55 55 54 55 55 55 55 55 55 55 55 55 55 55 53 51 43 46 46 41 42 47 49 52 54 53 50 46 48 46 49 44 44 43 41 40 42 39 46 39 49 48 46 46 53 53 58 57 58 59 56 57
53 54 54 54 54 54 54 54 54 54 55 55 55 56 55 55 54 50 45 43 43 40 40 42 44 50 50 51 55 46 49 53 47 50 46 47 40 47 41 41 46 45 51 45 47 54 56 53 55 58 59 57 58 58
52 52 53 53 53 53 53 53 53 54 54 55 55 56 56 55 55 52 44 45 45 40 34 40 47 43 47 49 50 51 50 46 47 46 42 42 41 51 45 48 44 48 46 46 47 53 55 56 58 59 59 59 56 56
51 52 52 52 52 53 53 53 53 53 53 54 54 54 55 55 55 54 50 46 50 43 36 38 46 51 49 48 44 46 46 45 44 40 39 40 47 45 46 45 39 46 46 44 46 58 58 59 64 63 59 57 57 55
51 51 51 52 52 51 52 52 52 52 52 52 52 53 53 54 54 51 43 45 48 47 38 33 41 41 43 44 43 42 43 45 46 42 43 47 50 44 39 39 48 53 55 56 53 60 61 61 61 62 59 57 57 56
51 51 51 51 51 51 51 51 51 52 52 52 52 52 52 52 52 44 41 51 50 48 36 32 33 34 40 42 41 41 43 39 39 38 38 42 41 39 37 35 45 51 57 59 58 58 54 57 56 60 58 57 57 56
50 50 51 51 51 51 51 51 51 51 51 52 51 51 52 52 51 47 46 49 49 42 38 32 33 33 39 35 33 40 35 35 34 35 36 36 41 39 34 43 47 50 52 54 57 59 57 59 59 58 59 56 52 50
49 50 50 50 50 51 51 50 51 51 51 51 51 51 50 48 44 45 49 49 46 40 32 32 33 32 37 36 36 33 35 29 36 32 34 36 35 30 38 42 44 49 49 52 56 55 55 54 54 53 53 52 50 49
49 49 49 49 50 50 50 50 51 50 50 50 49 46 36 44 48 48 43 38 33 33 33 32 42 30 37 34 32 33 32 31 27 34 38 31 35 45 49 49 49 49 52 52 48 46 48 47 49 52 52 53 52 50
48 49 49 49 49 49 49 50 50 50 49 46 40 37 44 46 42 36 32 31 32 30 34 37 39 32 38 32 32 36 31 31 27 32 30 30 30 40 47 48 51 52 53 53 54 53 54 53 51 51 50 51 51 51
48 48 48 49 49 49 49 49 50 47 46 45 42 43 42 36 33 31 31 32 31 32 37 35 38 41 35 40 34 32 30 30 26 34 28 27 40 42 45 47 49 51 51 53 54 52 53 53 52 50 50 50 50 50
48 48 48 48 49 49 49 49 49 49 48 45 39 33 32 32 27 28 25 29 31 37 37 36 34 36 33 34 32 31 27 27 32 28 27 34 47 42 41 43 45 46 46 46 48 47 47 49 48 45 46 47 47 46
48 47 48 48 48 49 49 49 49 47 42 33 31 26 27 27 30 33 34 38 43 40 38 37 35 35 35 31 33 28 31 29 24 24 27 46 49 44 46 43 42 44 45 44 45 43 41 41 43 42 42 45 44 42
48 47 47 47 48 48 48 48 48 45 36 31 31 25 29 35 37 36 36 38 39 43 39 36 35 35 32 31 32 30 25 24 26 31 42 46 45 44 44 42 40 41 44 45 46 44 43 41 40 41 42 43 43 42
47 47 45 47 48 48 48 48 46 42 32 31 31 29 34 32 33 35 35 34 41 42 40 36 32 30 30 31 30 29 26 26 34 37 44 47 46 45 42 40 40 43 44 42 42 42 42 43 42 43 41 41 40 40
47 40 46 47 47 48 47 43 40 33 31 29 28 36 36 35 34 37 41 40 45 38 32 33 29 29 33 29 29 33 30 38 42 44 43 43 43 44 43 41 41 41 41 39 40 41 42 41 40 40 39 39 39 39
41 44 47 47 47 45 43 38 32 32 29 30 28 33 36 38 36 38 42 45 39 35 34 31 33 30 29 29 32 37 39 42 44 43 45 45 45 45 42 42 40 40 39 38 39 38 37 36 36 37 37 36 34 33
44 44 47 47 45 38 32 32 32 29 30 33 35 36 37 38 41 43 44 45 44 43 37 33 29 27 30 36 36 37 40 43 44 45 43 48 50 47 41 37 37 38 37 36 37 38 39 38 38 38 38 36 36 37
46 46 47 46 45 33 31 31 33 30 29 33 34 33 34 35 39 40 41 40 39 35 31 29 31 34 36 41 44 44 46 48 45 42 44 48 48 37 36 37 38 37 37 36 35 38 36 35 35 35 35 36 35 34
44 44 45 44 36 33 32 32 30 31 32 31 34 34 33 35 33 33 33 37 33 31 29 35 38 41 44 44 46 47 47 49 46 47 46 45 45 40 36 36 36 37 38 38 38 38 37 36 36 34 34 34 34 34
40 45 39 40 32 32 30 33 31 32 29 29 29 32 30 30 31 32 35 32 32 34 37 39 40 41 41 42 44 45 46 47 46 45 46 44 43 36 36 37 35 34 35 36 37 37 36 36 34 34 33 33 34 33
43 41 34 32 29 29 28 33 27 29 25 27 31 28 28 29 32 36 29 32 34 40 41 41 41 42 41 43 44 45 46 44 43 44 45 46 46 41 38 36 36 35 35 36 37 37 37 36 36 33 34 32 31 31
41 32 30 28 28 26 29 24 29 28 29 27 26 24 27 29 34 30 27 31 36 40 39 39 41 40 41 38 39 42 43 44 43 44 46 44 42 39 39 39 38 38 40 42 38 37 36 35 35 33 32 30 31 31
28 27 28 25 29 25 23 22 22 24 22 26 24 24 27 32 26 26 27 32 35 37 39 41 40 40 37 38 41 43 43 43 42 40 44 44 44 44 40 37 37 38 39 35 33 34 33 34 33 32 31 31 30 28
23 26 25 25 24 23 22 19 20 21 25 23 25 30 30 28 25 24 30 34 36 37 38 38 37 38 39 40 40 40 42 44 43 40 42 40 41 39 35 35 34 35 36 39 36 34 33 32 32 31 30 31 32 27
22 22 26 32 29 27 25 27 29 26 21 20 26 27 26 21 22 30 35 34 33 34 31 32 36 37 37 40 43 44 43 40 39 40 43 43 41 41 39 36 36 39 37 35 36 36 35 32 32 31 30 31 31 28
27 27 20 24 24 28 23 24 23 21 25 29 26 23 22 23 27 35 32 29 26 25 25 27 27 27 28 34 37 35 33 33 31 32 33 32 32 34 35 36 35 36 35 35 35 35 35 34 33 32 31 30 27 27
24 26 28 16 19 22 22 23 25 29 30 29 26 25 28 35 38 36 32 26 23 21 24 29 29 28 30 30 31 32 32 32 31 30 30 33 32 31 30 32 33 33 32 33 36 35 33 34 33 32 31 27 26 26
21 29 25 20 17 19 27 27 29 28 26 28 28 27 30 32 35 29 26 25 23 26 28 26 27 28 29 30 29 28 30 32 33 33 33 33 34 32 29 30 32 33 33 33 33 33 36 33 31 26 24 23 23 23
29 25 24 26 24 29 32 25 22 22 22 22 24 23 26 29 30 29 25 26 25 22 22 24 26 29 29 29 29 28 28 30 28 28 28 29 31 32 32 32 33 33 33 32 31 30 27 23 23 22 22 21 23 23
23 25 24 22 25 22 21 21 22 20 23 19 22 22 21 21 23 32 22 19 19 20 23 26 26 27 27 29 31 31 31 28 30 31 31 29 32 32 32 33 33 32 31 30 27 24 23 22 22 22 21 22 21 19
19 20 20 23 23 20 19 19 19 19 20 19 21 21 21 21 24 28 17 18 20 23 24 26 26 24 22 24 26 28 29 27 29 34 34 34 33 32 31 31 30 28 26 25 23 23 23 22 21 21 20 19 19 19
MSLP
1021.01 1020.91 1020.74 1020.44 1020.13 1020.02 1020.03 1019.83 1019.96 1019.87 1019.67 1019.57 1019.32 1019.16 1019.36 1019.53 1020.17 1021.12 1021.17 1021.27 1021.23 1020.55 1018.89 1018.57 1018.31 1018.06 1017.72 1017.44 1016.85 1017.99 1018.52 1018.55 1018.57 1017.60 1016.37 1014.83 1013.98 1013.66 1013.77 1012.67 1013.06 1013.41 1013.17 1012.19 1011.17 1009.99 1007.57 1006.80 1007.62 1006.64 1004.56 1004.48 1004.72 1005.32
1020.63 1020.31 1020.44 1020.19 1019.99 1019.84 1019.64 1019.57 1019.16 1019.24 1019.18 1018.80 1018.69 1018.58 1018.32 1018.68 1019.07 1019.91 1020.69 1020.88 1021.44 1021.30 1019.39 1018.61 1018.35 1017.59 1017.36 1017.19 1016.97 1017.17 1016.70 1016.80 1016.84 1016.66 1015.93 1015.19 1014.08 1013.47 1012.78 1011.82 1011.93 1011.18 1009.84 1009.41 1008.75 1006.65 1005.76 1005.78 1004.59 1004.78 1004.69 1004.41 1004.80 1005.07
1020.24 1020.04 1020.03 1019.81 1019.67 1019.46 1019.28 1018.97 1019.03 1018.68 1018.32 1018.14 1018.04 1017.68 1017.65 1017.69 1017.87 1018.50 1019.11 1020.14 1021.06 1020.94 1019.45 1018.83 1017.22 1016.55 1016.78 1016.78 1016.82 1016.99 1016.16 1015.91 1016.20 1016.21 1015.88 1015.05 1014.27 1013.11 1011.78 1010.77 1010.29 1010.00 1009.40 1009.02 1007.66 1005.07 1004.55 1004.83 1004.56 1004.56 1004.49 1004.65 1004.72 1004.87
1019.74 1019.71 1019.55 1019.36 1019.26 1019.04 1018.97 1018.58 1018.22 1018.16 1018.02 1017.50 1017.19 1016.95 1016.63 1016.60 1016.79 1017.40 1017.85 1018.24 1018.73 1019.69 1019.29 1017.14 1016.68 1016.78 1016.37 1016.52 1016.61 1016.63 1016.53 1016.83 1016.40 1016.42 1015.88 1015.01 1013.82 1012.46 1011.18 1010.20 1009.81 1009.25 1009.12 1007.81 1006.09 1004.08 1004.10 1003.62 1003.48 1003.45 1003.62 1003.90 1004.32 1004.55
1019.09 1019.19 1019.03 1018.85 1018.61 1018.57 1018.32 1018.12 1017.93 1017.67 1017.20 1016.99 1016.71 1016.33 1016.02 1015.66 1015.84 1015.74 1016.00 1016.19 1016.12 1017.24 1017.32 1016.84 1016.34 1015.75 1016.28 1016.33 1016.40 1016.59 1016.78 1016.78 1016.75 1016.44 1015.49 1014.18 1013.06 1012.63 1011.28 1010.48 1007.68 1007.91 1006.76 1006.64 1003.88 1002.10 1002.42 1002.00 1001.94 1002.32 1002.75 1003.07 1003.53 1004.03
1018.52 1018.35 1018.08 1018.18 1018.16 1018.01 1017.72 1017.64 1017.37 1017.16 1016.75 1016.41 1015.91 1015.67 1015.23 1014.96 1014.90 1014.96 1014.86 1015.48 1015.70 1016.01 1016.54 1016.59 1015.72 1015.24 1015.89 1016.18 1016.16 1016.07 1016.11 1016.28 1015.99 1015.84 1014.82 1013.39 1012.97 1012.96 1010.59 1007.07 1005.07 1005.32 1004.86 1004.40 1002.79 1002.27 1002.32 1001.87 1001.88 1002.06 1002.41 1002.58 1002.82 1003.17
1018.01 1017.71 1017.61 1017.41 1017.37 1017.43 1017.16 1017.16 1016.96 1016.48 1016.30 1015.92 1015.39 1015.02 1014.63 1014.58 1014.15 1013.63 1013.38 1012.69 1013.56 1015.46 1016.12 1016.08 1015.28 1015.01 1015.24 1015.79 1015.87 1016.06 1016.31 1016.24 1016.01 1015.82 1014.59 1013.56 1013.24 1013.14 1009.81 1004.91 1004.74 1003.72 1003.44 1002.90 1002.44 1002.29 1001.81 1001.68 1001.38 1001.33 1001.87 1002.14 1002.24 1002.54
1017.01 1016.88 1016.96 1016.85 1016.81 1016.65 1016.51 1016.39 1016.33 1015.79 1015.87 1015.50 1014.93 1014.52 1014.09 1013.87 1013.26 1012.97 1012.56 1012.87 1013.70 1014.71 1015.36 1014.77 1014.11 1014.62 1014.29 1014.52 1015.33 1015.66 1015.83 1016.09 1015.65 1014.80 1014.00 1013.06 1012.78 1011.94 1007.31 1002.75 1002.87 1002.71 1002.70 1001.89 1000.90 1001.02 1000.68 1000.81 1001.05 1001.08 1001.05 1001.65 1001.90 1001.96
1016.08 1016.05 1016.05 1016.10 1016.17 1015.96 1015.87 1015.75 1015.40 1015.21 1015.20 1014.92 1014.62 1014.13 1013.35 1012.92 1012.83 1012.34 1011.90 1012.11 1012.81 1013.72 1013.92 1013.43 1012.53 1012.63 1013.60 1013.66 1014.38 1015.09 1015.11 1015.09 1014.44 1013.68 1012.72 1012.32 1010.64 1007.70 1002.44 1002.15 1001.70 1001.42 1001.28 1000.09 1000.02 1000.05 1000.07 1000.00 1000.05 1000.41 1000.59 1000.76 1001.07 1001.08
1014.92 1015.15 1015.26 1015.22 1015.23 1015.21 1015.14 1015.08 1014.94 1014.54 1014.70 1014.56 1014.58 1013.84 1013.32 1012.88 1012.70 1012.47 1013.23 1012.88 1013.07 1012.78 1012.65 1011.59 1010.47 1011.65 1012.38 1013.24 1013.37 1013.99 1014.19 1013.26 1012.70 1011.45 1011.44 1010.39 1005.90 1002.00 1001.28 1000.76 1000.35 1000.19 1000.14 1000.05 1000.00 999.40 999.54 999.79 999.75 999.90 999.98 999.97 1000.29 1000.30
1013.75 1014.03 1014.21 1014.25 1014.32 1014.38 1014.45 1014.22 1014.33 1014.53 1014.29 1014.17 1014.09 1013.81 1013.43 1013.23 1013.06 1012.91 1012.83 1012.58 1011.81 1011.23 1009.94 1009.69 1009.71 1010.39 1011.22 1011.30 1011.89 1012.19 1011.69 1011.56 1010.66 1009.25 1009.31 1007.12 1003.16 1000.47 1000.22 999.67 998.97 998.60 998.65 998.70 998.85 998.45 998.75 998.79 998.94 999.27 999.71 999.50 999.79 999.91
1012.77 1013.02 1013.11 1013.09 1013.32 1013.63 1013.41 1013.71 1013.77 1014.12 1013.57 1013.41 1014.05 1014.04 1013.71 1013.35 1012.96 1012.15 1011.02 1010.53 1009.74 1008.81 1008.48 1008.22 1008.20 1008.70 1009.80 1010.14 1010.32 1010.61 1010.04 1009.74 1008.44 1008.16 1007.60 1004.30 999.40 999.17 998.57 998.01 997.62 997.76 997.84 997.65 998.07 997.83 997.77 998.18 998.42 998.89 999.55 999.30 999.52 999.74
1011.49 1011.72 1012.25 1012.24 1012.32 1012.74 1012.77 1012.64 1012.88 1013.18 1013.63 1013.44 1013.76 1014.00 1013.20 1012.32 1011.20 1009.50 1008.49 1008.02 1007.82 1007.39 1007.40 1007.46 1007.77 1008.06 1009.52 1009.85 1009.42 1009.04 1008.39 1007.66 1007.34 1006.55 1004.49 1001.28 998.84 998.47 997.56 997.38 997.23 997.40 997.63 997.59 997.69 997.73 997.82 998.03 998.29 998.69 999.70 999.52 999.26 999.42
1010.44 1010.68 1010.91 1011.32 1011.55 1011.61 1011.65 1011.98 1012.05 1012.76 1013.15 1012.97 1012.90 1012.56 1011.51 1009.76 1008.28 1007.26 1006.89 1006.42 1005.81 1006.11 1006.39 1006.90 1007.28 1007.59 1008.08 1008.49 1007.73 1007.24 1006.58 1006.30 1005.38 1004.01 1001.61 998.54 997.40 997.33 996.89 996.62 997.12 997.01 997.24 997.48 997.54 997.89 997.90 998.03 998.36 998.83 999.29 1000.02 999.83 999.48
1009.38 1009.61 1009.91 1010.23 1010.48 1010.62 1010.84 1011.12 1011.41 1012.22 1012.07 1011.82 1011.31 1009.80 1008.42 1007.89 1007.18 1007.04 1006.87 1006.64 1006.36 1006.20 1006.44 1006.76 1006.96 1007.13 1006.74 1006.47 1005.90 1005.32 1004.94 1004.00 1003.02 1001.09 998.57 996.52 996.49 996.77 996.48 996.48 996.87 997.02 997.14 997.40 997.40 997.52 997.93 998.45 998.51 998.84 999.37 999.40 999.68 999.93
1008.34 1008.74 1008.76 1009.10 1009.37 1009.71 1010.01 1010.44 1010.74 1011.34 1010.82 1010.03 1008.95 1007.98 1007.45 1007.35 1006.60 1006.38 1006.37 1006.27 1006.28 1006.01 1006.22 1006.37 1005.81 1005.30 1004.71 1004.09 1003.53 1002.77 1002.44 1001.30 999.93 998.56 996.56 996.75 996.73 996.32 996.36 996.73 997.09 997.38 997.37 997.36 997.65 997.54 998.00 998.61 998.69 998.57 999.07 999.17 999.48 999.82
1007.40 1007.46 1007.63 1007.92 1008.36 1008.74 1009.18 1009.81 1010.07 1009.97 1009.06 1008.05 1007.27 1006.90 1006.46 1005.92 1005.56 1005.42 1005.26 1005.39 1005.71 1005.75 1005.71 1005.57 1004.51 1003.25 1002.57 1001.70 1001.03 1000.36 999.78 998.44 997.37 996.97 997.00 996.93 996.27 996.24 996.40 997.16 997.03 997.18 997.38 997.80 998.24 997.97 998.20 998.71 999.31 999.30 999.23 999.15 999.71 1000.13
1006.28 1006.39 1006.70 1006.99 1007.54 1008.11 1008.36 1008.69 1009.15 1008.20 1006.92 1006.56 1006.32 1005.50 1005.41 1004.77 1004.76 1004.66 1004.34 1004.36 1004.86 1004.93 1005.03 1004.65 1003.77 1002.34 1001.39 1000.03 999.44 998.53 998.18 997.52 997.08 996.76 996.37 996.00 996.10 996.32 996.79 996.23 996.78 997.43 997.83 998.16 998.61 998.60 998.76 999.12 999.29 999.14 999.17 999.21 999.89 1000.28
1005.04 1005.52 1005.78 1006.14 1006.76 1007.55 1007.78 1007.68 1007.66 1006.39 1005.62 1005.26 1004.72 1004.49 1004.25 1003.86 1003.63 1003.56 1003.32 1003.25 1003.36 1003.55 1003.82 1003.53 1002.92 1001.07 1000.04 999.46 999.14 998.50 997.81 996.97 996.50 996.20 995.82 995.55 995.68 995.84 996.19 996.33 996.29 997.40 997.26 998.42 999.02 998.56 998.67 999.04 999.26 999.27 999.35 999.41 999.83 1000.15
1003.92 1004.38 1004.86 1005.36 1006.10 1006.79 1006.78 1006.28 1005.97 1005.13 1004.23 1003.69 1003.80 1003.51 1003.18 1002.91 1002.71 1002.69 1002.50 1002.42 1002.44 1002.50 1002.26 1001.49 1000.57 1000.03 999.65 998.40 997.53 996.72 996.20 995.89 995.91 995.64 995.31 995.22 995.42 995.64 995.91 996.43 996.75 996.64 997.74 998.63 998.80 998.66 998.79 999.05 999.37 999.38 999.39 999.52 999.84 1000.04
1003.21 1003.46 1004.16 1004.81 1005.27 1005.83 1005.50 1004.79 1004.20 1003.87 1003.37 1002.97 1002.43 1002.57 1002.32 1001.99 1001.81 1001.75 1001.55 1001.60 1001.40 1000.77 1000.00 999.09 998.37 997.87 997.58 997.26 996.96 996.33 995.84 995.85 995.42 995.21 994.82 994.72 994.80 995.14 995.48 995.90 996.50 997.14 997.32 997.85 998.05 998.23 998.40 998.47 998.67 998.94 999.31 999.63 999.91 1000.03
1002.14 1002.65 1003.50 1003.91 1004.56 1004.45 1004.04 1003.35 1003.53 1002.98 1003.18 1002.39 1002.38 1001.90 1001.24 1000.85 1000.51 1000.27 1000.01 999.66 998.49 997.97 997.93 997.32 996.78 996.37 996.01 995.32 994.72 994.58 994.32 994.51 994.41 994.33 994.06 994.21 994.45 995.16 995.24 995.37 996.07 996.31 996.47 996.78 997.29 997.51 997.51 997.89 998.45 998.88 999.20 999.51 999.92 1000.31
1001.62 1002.16 1002.96 1003.36 1003.59 1003.13 1002.60 1002.65 1002.77 1002.24 1002.14 1001.44 1000.99 1000.68 1000.05 999.64 998.98 998.88 998.06 996.67 995.97 995.85 995.46 994.90 994.42 994.32 993.96 993.35 993.47 993.01 992.80 992.96 992.94 992.98 993.12 993.24 993.23 993.62 993.75 994.35 994.63 995.40 995.77 995.74 995.96 996.66 997.08 997.49 998.11 998.74 999.22 999.54 999.95 1000.49
1001.14 1001.50 1001.72 1001.90 1001.87 1001.50 1001.82 1001.96 1001.79 1001.45 1000.87 1000.66 1000.09 999.42 998.68 998.01 997.46 996.78 995.05 994.55 993.99 993.96 993.68 993.11 993.04 992.70 992.30 992.07 991.68 991.09 991.35 992.09 991.90 991.89 991.94 992.28 992.41 992.66 993.01 993.35 993.77 994.07 994.07 994.12 994.86 995.78 996.47 997.04 997.79 998.81 999.32 999.53 999.80 1000.14
1000.20 1000.04 1000.56 1000.11 1000.30 1000.63 1000.70 1000.89 1000.88 1000.70 999.98 999.27 998.87 998.26 997.12 996.67 995.94 994.60 993.51 992.60 992.70 992.18 991.58 991.27 991.11 990.88 990.61 989.98 989.74 989.57 990.00 990.66 990.60 990.50 990.43 990.77 991.02 991.25 991.85 992.53 992.80 992.92 993.30 994.00 994.46 994.96 995.71 996.55 997.41 998.10 998.63 998.91 999.24 999.93
998.67 998.63 998.40 998.32 999.09 999.67 999.64 999.61 999.40 999.01 998.56 998.23 997.31 996.60 996.22 995.84 995.02 993.05 991.66 991.19 990.68 990.42 990.36 990.13 989.89 989.63 989.22 988.85 988.59 988.52 988.50 988.99 989.32 989.44 989.39 989.82 990.10 990.60 991.24 991.71 992.13 992.48 992.88 993.14 993.60 994.28 994.97 995.93 996.66 997.22 997.95 998.37 998.83 999.60
997.23 997.39 997.73 997.79 998.05 998.34 998.37 998.26 998.07 998.01 997.35 996.81 996.17 995.98 995.65 994.57 992.91 991.43 990.71 990.35 990.54 990.36 990.39 990.05 989.81 989.51 988.74 987.96 987.52 987.35 987.72 988.17 988.45 988.42 988.44 988.93 989.32 989.57 989.90 990.36 990.69 991.03 991.73 992.40 992.88 993.38 994.00 994.76 995.43 996.21 997.04 997.79 998.37 999.10
995.99 996.30 996.82 997.46 997.73 997.56 997.39 997.24 996.99 996.76 996.45 996.17 996.13 995.32 994.19 992.57 990.89 990.74 990.73 990.84 991.22 991.32 990.79 990.45 990.03 989.67 989.14 988.22 987.76 987.55 987.71 987.93 988.54 988.78 989.00 989.23 989.28 989.26 989.43 989.69 989.97 990.31 990.83 991.41 991.94 992.46 993.02 993.72 994.40 995.39 996.38 997.21 998.08 998.93
995.51 995.84 996.12 996.42 996.98 996.92 996.60 996.31 995.89 995.57 995.46 995.49 995.08 994.04 992.65 991.32 990.58 990.62 990.57 990.51 990.61 990.83 990.61 989.66 989.05 988.99 988.60 988.08 987.75 987.51 987.59 987.95 988.50 988.83 988.93 988.98 989.27 989.32 989.69 989.92 990.21 990.52 990.89 991.42 991.93 992.39 992.92 993.57 994.37 995.30 996.16 997.15 998.08 999.09
994.63 994.87 995.37 995.47 995.76 995.33 994.90 995.00 994.87 994.92 995.00 994.72 994.34 993.26 992.05 990.89 990.61 990.71 990.67 990.49 990.22 989.91 989.36 989.28 988.96 988.71 988.45 988.32 988.09 988.02 987.99 988.06 988.14 988.25 988.22 988.30 988.32 988.75 989.23 989.71 990.12 990.61 991.08 991.58 992.15 992.76 993.46 994.24 995.12 996.09 996.88 997.75 998.66 999.57
993.34 994.15 994.11 994.00 993.93 994.05 994.27 994.57 994.88 995.00 994.90 994.44 993.94 993.47 991.39 990.80 990.10 989.87 989.67 989.27 989.21 989.44 989.47 989.07 988.84 988.57 988.47 988.28 988.18 988.06 988.02 988.04 988.17 988.33 988.50 988.59 988.64 988.88 989.23 989.64 990.08 990.56 991.15 991.82 992.45 993.11 994.00 994.92 995.64 996.30 997.15 998.05 998.92 999.69
993.11 993.08 993.26 993.41 993.48 994.09 994.55 994.66 994.57 994.42 993.75 993.76 992.89 992.56 992.16 991.84 990.76 988.90 988.69 989.09 989.26 989.26 988.90 988.64 988.53 988.46 988.50 988.42 988.21 988.22 988.17 988.01 987.99 988.24 988.53 988.87 989.02 989.18 989.42 989.77 990.24 990.75 991.33 992.04 992.98 993.98 994.59 995.24 995.98 996.73 997.71 998.58 999.37 1000.28
993.17 993.20 993.26 993.30 993.41 993.82 994.38 994.56 994.22 993.61 993.00 992.45 991.82 991.68 991.55 991.46 990.62 988.86 989.23 989.34 989.33 989.06 988.91 988.80 988.72 988.72 988.84 988.80 988.76 988.70 988.63 988.49 988.27 988.29 988.51 988.80 989.07 989.41 989.73 990.07 990.55 991.20 991.92 992.79 993.65 994.35 995.09 995.74 996.49 997.42 998.35 999.11 1000.07 1000.95
Wind_Speed
14 14 13 13 13 13 14 16 18 16 15 15 14 12 15 18 20 8 2 6 4 4 6 6 5 7 2 4 6 5 3 4 4 5 4 5 4 2 5 5 6 10 8 6 5 6 10 14 9 7 3 3 7 8
16 14 14 13 13 14 14 15 15 17 18 18 17 17 14 18 22 17 3 3 2 2 5 1 5 10 11 5 3 7 2 4 5 5 3 4 5 3 5 6 6 7 11 4 9 7 2 19 8 14 3 4 4 8
15 15 16 13 13 15 15 15 17 17 17 19 20 19 18 17 22 22 4 6 3 3 6 6 15 11 12 14 5 6 5 5 4 2 2 2 9 3 7 8 8 6 9 6 6 11 16 14 18 16 11 11 9 8
14 15 16 15 15 15 16 15 14 16 17 17 19 22 21 19 20 25 6 7 5 3 5 5 2 3 1 8 15 10 4 3 3 3 4 5 6 6 8 10 9 3 8 7 16 22 19 21 19 15 14 13 15 13
16 17 16 16 16 15 15 15 15 16 15 16 15 16 21 19 18 15 11 9 11 8 4 3 6 6 4 8 11 10 8 7 4 4 5 6 5 5 9 8 18 11 15 14 13 20 15 14 12 5 10 10 10 11
18 17 16 17 17 17 15 15 15 16 14 14 15 13 15 20 15 6 5 4 11 6 2 3 1 5 5 7 9 12 10 8 7 5 6 8 5 4 7 10 12 11 20 25 28 23 19 17 17 16 13 13 11 11
19 18 18 17 17 18 17 15 15 15 15 14 15 15 13 14 10 4 6 2 22 8 4 4 5 3 4 4 4 4 7 3 3 3 6 7 5 6 8 21 5 8 15 17 23 22 23 22 14 11 11 13 11 10
20 19 18 18 18 17 17 16 14 15 15 16 16 16 16 16 9 9 4 14 17 5 3 4 3 5 12 6 5 5 5 4 5 3 3 4 3 5 15 11 15 23 25 28 27 19 21 19 18 16 13 9 11 12
20 20 19 18 19 18 17 17 14 13 14 15 16 21 7 5 4 1 11 23 3 4 5 5 6 5 8 4 3 4 4 5 4 6 6 7 7 17 17 13 16 18 17 19 13 14 17 20 20 19 17 14 14 14
21 20 20 19 18 18 18 18 16 14 13 13 8 4 4 1 2 9 3 4 1 4 3 5 4 5 7 5 6 7 5 5 6 8 7 8 14 23 17 19 19 19 21 19 20 20 16 13 14 16 19 14 14 13
22 22 20 19 18 18 18 18 17 14 8 2 3 4 3 2 2 1 4 5 4 6 6 5 10 7 6 7 6 7 5 5 5 7 9 7 11 13 16 22 24 25 23 22 22 22 18 16 13 11 14 12 11 12
23 23 21 19 18 19 19 19 18 8 4 1 0 1 1 2 4 6 6 5 6 5 6 6 9 7 5 4 5 6 5 7 7 9 6 7 8 9 11 16 16 12 13 14 15 18 16 15 12 11 12 10 10 10
23 23 23 21 19 20 20 19 17 14 4 2 2 3 3 6 10 9 10 5 5 4 6 6 5 5 4 4 4 6 8 7 6 6 6 9 9 7 8 9 10 6 8 9 11 8 5 8 6 7 10 9 7 5
23 23 22 21 20 19 19 19 16 11 5 5 7 8 8 8 7 6 7 6 4 3 7 7 4 4 4 7 4 6 6 4 5 6 9 13 13 13 11 5 4 9 9 9 9 5 6 7 7 6 6 6 5 5
24 24 22 20 20 19 19 18 17 8 5 7 7 8 9 6 4 1 2 3 0 2 5 3 2 4 5 6 6 6 6 5 6 7 9 9 6 8 8 3 6 7 6 7 7 6 5 5 5 4 5 4 3 3
24 22 17 21 20 20 18 15 11 5 4 6 8 6 3 2 7 5 3 4 4 4 3 3 5 6 9 6 10 8 6 8 6 7 10 5 8 7 5 3 5 5 4 3 4 4 5 6 7 4 4 3 3 3
23 9 17 20 19 18 17 8 3 7 7 8 6 7 9 8 7 6 7 6 3 4 6 5 7 9 3 5 7 6 7 6 8 7 2 7 8 7 2 4 2 3 2 0 2 4 4 3 1 3 4 4 3 3
12 8 19 18 14 10 7 5 4 7 9 6 5 7 12 10 12 12 13 11 7 6 5 10 6 8 7 11 12 7 8 8 7 6 7 5 4 6 7 7 7 5 3 3 4 3 3 4 5 4 2 4 3 2
14 12 17 16 12 4 4 6 6 6 9 3 6 8 9 9 11 12 12 11 11 10 9 5 10 9 13 14 15 13 12 10 8 6 6 11 12 10 6 3 6 2 5 3 5 4 3 4 3 3 3 4 2 3
25 23 20 19 16 5 5 5 3 6 8 7 7 9 10 10 10 11 12 12 12 11 14 17 19 16 15 13 12 12 11 11 6 6 8 8 7 5 7 6 6 8 6 5 3 3 2 2 3 4 3 3 3 4
18 14 16 14 4 7 4 4 4 3 4 7 6 6 7 6 9 11 12 10 11 14 17 15 16 16 19 17 17 16 17 14 12 11 12 11 5 5 4 5 6 4 6 5 6 7 8 5 3 3 3 3 2 2
5 14 4 7 5 5 6 5 3 2 4 3 3 4 5 8 10 11 10 12 15 14 13 13 15 16 18 23 21 24 22 19 15 11 14 8 9 4 5 6 5 6 7 8 6 5 4 3 3 3 3 3 4 3
10 8 4 5 8 7 4 3 6 5 5 4 4 7 6 8 8 7 10 12 16 16 17 18 21 23 22 24 22 20 18 18 14 14 13 13 11 7 4 6 7 8 8 8 7 5 4 7 5 4 4 5 5 5
10 7 7 7 10 6 5 6 5 3 3 5 6 12 11 10 8 10 15 15 14 13 15 21 15 15 16 19 18 18 15 12 13 13 13 11 10 7 7 7 8 9 9 7 8 8 6 5 8 6 6 7 7 7
7 11 7 7 6 6 6 5 6 5 7 9 12 10 5 3 6 9 14 13 12 15 15 14 14 15 16 17 15 15 14 12 13 15 14 12 12 8 6 5 7 8 6 6 6 7 6 6 8 8 9 9 10 10
9 9 6 11 7 7 8 6 8 9 9 9 9 6 2 7 14 13 8 7 12 12 13 12 12 12 14 15 15 13 13 9 10 12 13 9 11 11 10 9 6 6 7 7 6 8 8 9 10 12 10 12 16 12
7 6 4 3 4 3 3 2 3 5 6 6 5 9 5 7 9 7 7 3 4 1 2 4 6 11 13 13 11 11 7 8 11 11 11 8 9 9 10 10 11 8 9 10 8 10 12 13 13 13 10 9 11 11
5 7 11 7 5 4 7 5 5 6 5 4 3 6 6 7 10 6 3 1 2 5 5 5 5 6 8 9 4 3 3 4 5 4 3 2 2 0 2 2 2 12 7 8 9 9 10 11 12 13 13 11 10 10
5 4 4 5 4 5 8 7 7 5 3 5 12 15 15 13 12 11 5 3 3 3 6 5 3 3 5 4 2 1 4 7 10 8 11 8 5 5 4 3 4 4 4 5 12 9 9 9 10 11 12 11 10 11
6 7 7 6 8 9 8 7 5 3 3 4 4 7 11 14 12 4 4 5 4 7 4 3 3 3 4 4 2 1 1 2 2 3 5 6 4 4 6 6 6 6 7 8 8 9 17 13 15 13 13 11 10 11
5 7 6 10 13 12 9 2 1 1 3 5 6 10 18 11 6 6 8 7 6 3 4 4 4 4 4 4 3 3 3 3 2 2 2 2 2 4 5 6 6 7 8 10 10 10 13 12 11 13 14 15 17 15
5 10 8 11 12 3 2 3 2 4 3 4 6 6 4 4 6 5 2 3 4 5 7 4 3 2 2 2 0 1 4 1 3 3 6 3 3 4 6 6 7 8 10 10 12 13 14 14 12 13 14 17 16 15
2 2 1 3 3 3 4 3 4 5 5 5 6 4 3 3 7 2 1 1 2 2 2 2 1 1 2 2 2 1 2 1 2 6 8 9 11 10 7 6 8 10 14 12 12 12 14 17 15 16 16 17 16 16
Wind_Direction
290 288 287 288 285 278 273 269 267 266 272 274 271 256 235 205 190 165 229 185 182 221 267 212 232 236 197 232 241 123 158 202 180 227 237 244 246 175 271 231 184 195 193 208 201 215 262 140 137 214 77 146 179 199
296 283 281 285 291 293 292 291 281 272 270 267 263 260 247 222 194 179 204 165 136 238 263 235 256 256 257 287 260 183 300 159 218 226 232 294 237 208 254 264 197 234 220 284 221 228 75 187 224 219 324 284 203 221
294 294 288 286 288 293 292 292 291 283 278 272 267 256 251 236 205 182 171 140 149 258 276 252 245 233 224 221 239 250 200 227 198 190 309 277 253 240 243 228 254 232 246 243 291 242 251 215 239 260 261 254 256 241
288 291 287 282 284 288 292 296 297 293 288 284 280 268 252 238 222 194 181 177 145 134 259 263 126 236 228 205 218 234 265 90 74 186 215 242 243 217 257 270 262 221 151 230 261 265 271 270 253 254 255 244 243 250
280 280 282 280 275 277 284 290 295 300 294 293 295 298 269 247 227 215 208 191 185 176 220 233 311 215 194 200 210 212 199 196 195 198 213 232 243 262 240 248 254 207 227 227 250 255 262 273 286 261 244 238 235 240
277 278 278 280 280 276 278 283 291 293 301 303 302 301 319 258 227 234 214 178 197 184 185 248 332 195 181 215 210 206 206 210 218 206 237 240 222 241 255 249 234 217 220 232 250 263 268 273 284 280 267 244 240 245
271 275 276 277 276 275 275 276 283 291 295 299 307 301 297 301 257 198 199 201 178 149 147 233 239 165 165 168 180 191 200 199 193 223 241 251 180 209 255 250 237 242 248 246 242 258 263 260 258 262 247 257 244 251
264 268 272 275 276 274 272 272 277 287 289 299 304 307 299 284 285 262 170 143 151 136 186 231 213 206 173 168 179 179 178 177 201 216 217 216 227 222 254 249 234 244 250 255 251 240 250 258 263 264 261 249 240 236
258 260 263 268 271 272 270 270 275 281 288 299 306 301 284 224 218 285 177 156 135 152 195 204 199 216 160 145 116 163 190 197 173 222 215 172 206 225 238 245 237 235 235 253 254 242 250 249 249 248 254 250 247 243
252 254 257 261 265 268 270 268 270 275 288 302 290 256 283 17 217 113 66 209 120 203 221 238 214 164 173 168 178 160 195 223 203 217 159 215 251 253 249 247 251 245 246 251 261 259 255 250 249 256 252 248 248 239
254 252 252 255 260 262 264 261 259 262 275 221 236 245 352 20 6 21 207 216 189 234 187 202 202 150 206 171 181 213 190 201 223 183 199 220 254 241 240 243 246 253 255 253 250 255 253 249 254 250 251 246 248 237
253 251 249 248 254 258 260 259 253 235 234 141 166 356 295 262 233 225 205 200 213 235 176 197 202 201 156 195 197 180 218 190 237 137 208 245 252 229 219 233 247 248 251 253 248 247 246 240 245 251 258 248 240 241
252 248 245 245 247 251 256 256 253 236 197 191 208 223 203 201 227 220 201 202 198 199 192 180 187 141 137 202 210 195 218 213 126 197 231 247 269 262 253 249 258 228 249 241 243 239 228 232 228 227 250 242 231 230
252 247 241 240 243 246 250 254 251 228 204 200 186 221 213 221 230 205 238 274 196 204 176 183 155 175 181 189 204 229 210 150 212 215 232 251 248 251 259 219 208 243 225 230 232 223 213 205 216 205 209 252 241 226
250 244 238 236 238 241 246 248 248 202 203 206 203 225 213 236 273 12 351 281 172 277 175 190 227 220 181 228 197 221 182 225 209 228 243 248 249 255 264 244 230 231 223 227 221 204 204 207 194 208 209 201 217 254
248 244 233 233 233 236 239 244 245 206 231 220 222 221 211 242 253 243 235 254 210 225 196 245 227 220 204 210 195 212 195 209 220 227 248 312 281 291 295 251 238 254 234 197 200 172 169 197 200 187 166 180 188 217
241 233 222 228 228 233 235 231 203 221 234 207 213 209 239 250 243 250 239 244 220 219 234 235 231 229 219 223 212 189 207 232 226 261 249 231 252 280 248 251 210 196 186 193 223 174 169 155 147 186 203 173 178 201
224 217 221 219 219 232 234 198 209 234 224 197 218 205 214 230 238 248 254 250 213 217 232 244 289 227 244 241 233 209 231 257 264 270 277 278 267 258 239 207 182 180 180 193 220 187 141 179 207 227 186 132 137 174
220 217 215 212 206 181 202 216 197 239 221 229 223 231 230 234 238 247 250 247 242 237 238 237 251 244 247 250 259 260 267 256 264 265 252 261 263 260 226 195 134 212 114 146 225 203 185 202 242 218 191 149 185 166
225 222 217 216 209 195 228 220 215 217 222 225 218 231 229 233 243 245 250 250 245 243 245 243 245 248 260 276 270 262 269 287 284 272 275 275 255 192 192 173 207 150 148 207 229 215 158 203 236 220 190 181 182 188
224 219 223 217 211 207 241 231 230 226 227 229 233 219 232 230 237 242 249 249 246 239 245 243 246 251 254 256 263 267 267 269 264 263 271 273 255 208 173 167 157 174 169 200 204 215 206 213 199 161 168 197 187 134
192 188 157 196 198 218 234 196 245 175 204 220 178 209 236 242 247 240 241 241 240 233 236 245 244 249 251 247 246 245 251 257 259 259 262 260 258 218 209 191 170 201 201 197 197 202 196 174 148 152 160 141 144 133
164 169 162 185 203 226 230 161 203 199 214 211 212 240 239 242 240 242 241 239 250 243 245 248 250 250 251 254 255 251 242 241 243 243 245 251 248 231 185 182 175 196 204 206 185 196 205 162 170 147 163 153 148 162
158 177 187 204 198 218 146 197 214 230 217 223 240 248 250 255 254 243 251 249 253 254 252 253 253 255 253 247 246 248 244 240 247 248 247 243 230 212 202 206 192 206 211 207 175 191 172 154 155 170 180 172 167 171
201 183 198 199 185 189 185 184 199 219 227 228 242 252 248 229 236 248 262 265 258 254 251 252 245 239 243 247 248 247 232 230 237 237 240 224 241 245 238 198 201 203 180 160 164 163 153 152 174 179 186 180 173 162
214 199 218 179 163 185 194 194 200 215 244 249 242 248 283 265 258 263 261 257 251 246 246 245 242 243 242 238 245 245 241 222 227 234 242 208 211 207 214 204 197 213 187 199 165 166 160 178 186 180 182 183 176 156
204 179 191 195 171 174 201 236 248 232 220 228 245 257 250 243 240 253 249 258 271 235 314 316 270 252 253 257 255 247 233 173 199 221 234 222 209 218 210 209 212 217 161 175 185 195 195 188 183 179 177 175 170 160
193 184 183 182 204 215 231 241 206 209 224 216 210 229 239 231 261 281 234 192 282 303 284 254 238 254 273 280 281 145 91 105 99 89 70 44 10 15 156 168 135 151 155 177 191 194 190 182 175 172 172 164 147 148
182 174 154 186 196 199 206 208 225 232 187 222 254 253 265 271 283 282 264 229 179 237 270 267 228 225 263 283 299 31 139 159 162 179 206 213 195 214 171 146 148 144 137 152 182 174 163 155 155 157 148 138 134 134
207 176 201 193 191 220 221 198 230 195 209 246 271 274 265 266 270 250 259 257 250 250 265 271 272 235 256 250 243 226 213 224 278 230 225 228 209 129 152 158 156 147 148 148 142 143 148 136 127 119 119 122 130 137
152 173 219 225 238 241 245 142 185 235 227 234 219 251 267 287 278 234 221 229 229 208 232 232 228 228 246 242 235 232 250 214 188 153 61 21 80 129 148 155 150 144 136 137 141 138 131 128 131 130 133 138 148 141
188 209 215 237 248 142 144 185 236 242 235 216 245 213 246 238 249 245 172 170 188 215 233 232 221 247 210 318 335 45 41 42 160 172 151 146 155 138 133 135 136 136 134 128 125 133 135 134 137 136 139 141 135 139
133 134 47 245 207 206 168 188 233 261 224 234 233 208 226 248 250 306 103 274 277 289 254 259 277 44 320 259 350 11 44 12 164 154 153 154 147 140 127 125 122 122 125 128 133 135 136 135 132 135 134 132 134 136